Change the Weather History Date:

Friday, February 22, 2013

  Actual Average Record
Temperature  
Mean Temperature 25 °F 23 °F  
Max Temperature 34 °F 35 °F 63 °F (1981)
Min Temperature 16 °F 12 °F -12 °F (2011)
Degree Days  
Heating Degree Days 40 42  
Month to date heating degree days 966 979  
Since 1 July heating degree days 4911 5375  
Cooling Degree Days 0 0  
Month to date cooling degree days 0 0  
Year to date cooling degree days 0 0  
Moisture  
Dew Point 18 °F    
Average Humidity 68    
Maximum Humidity 84    
Minimum Humidity 51    
Precipitation  
Precipitation 0.00 in 0.07 in 1.89 in (1974)
Month to date precipitation 0.42 1.60  
Year to date precipitation 1.70 4.46  
Sea Level Pressure  
Sea Level Pressure 30.36 in    
Wind  
Wind Speed 2 mph (NE)    
Max Wind Speed 12 mph    
Max Gust Speed 16 mph    
Visibility 10 miles    
Events      
T = Trace of Precipitation, MM = Missing Value Source: NWS Daily Summary

Daily Weather History Graph

Daily Weather History Graph

Search for Another Location

Airport or City:

Trip Planner

Search our weather history database for the weather conditions in past years. The results will help you decide how hot, cold, wet, or windy it might be!

Date:

Astronomy

Feb. 22, 2013 Rise Set
Actual Time 6:41 AM EST 5:34 PM EST
Civil Twilight 6:12 AM EST 6:03 PM EST
Nautical Twilight 5:39 AM EST 6:36 PM EST
Astronomical Twilight 5:06 AM EST 7:09 PM EST
Moon 2:40 PM EST (2/22) 4:28 AM EST (2/22)
Length of Visible Light 11h 50m
Length of Day
10h 53m
Waxing Gibbous, 90% of the Moon is Illuminated
Feb 22
Waxing Gibbous
Feb 25
Full
Mar 4
Last Quarter
Mar 11
New
Mar 19
First Quarter

Hourly Weather History & Observations

Time (EST) Temp. Windchill Dew Point Humidity Pressure Visibility Wind Dir Wind Speed Gust Speed Precip Events Conditions
12:53 AM 21.9 °F 14.5 °F 15.1 °F 75% 30.40 in 10.0 mi Variable 5.8 mph - N/A   Overcast
1:43 AM 21.2 °F 13.6 °F 15.8 °F 80% 30.36 in 10.0 mi NE 5.8 mph - N/A   Overcast
1:53 AM 21.0 °F 13.4 °F 16.0 °F 81% 30.38 in 10.0 mi NNE 5.8 mph - N/A   Overcast
2:53 AM 19.9 °F 12.1 °F 16.0 °F 85% 30.39 in 10.0 mi NE 5.8 mph - N/A   Overcast
3:53 AM 21.0 °F 16.2 °F 16.0 °F 81% 30.38 in 10.0 mi NNE 3.5 mph - N/A   Overcast
4:53 AM 21.0 °F - 16.0 °F 81% 30.40 in 10.0 mi Calm Calm - N/A   Overcast
5:53 AM 19.9 °F 13.4 °F 15.1 °F 81% 30.43 in 10.0 mi SSE 4.6 mph - N/A   Mostly Cloudy
6:53 AM 18.0 °F 12.7 °F 12.9 °F 81% 30.45 in 10.0 mi NE 3.5 mph - N/A   Partly Cloudy
7:53 AM 19.9 °F 14.9 °F 15.1 °F 81% 30.46 in 10.0 mi NNE 3.5 mph - N/A   Clear
8:53 AM 23.0 °F - 18.0 °F 81% 30.46 in 10.0 mi Calm Calm - N/A   Clear
9:53 AM 25.0 °F - 18.0 °F 75% 30.44 in 10.0 mi Calm Calm - N/A   Clear
10:53 AM 28.0 °F - 19.9 °F 72% 30.41 in 10.0 mi Calm Calm - N/A   Clear
11:53 AM 32.0 °F - 21.0 °F 64% 30.41 in 10.0 mi Calm Calm - N/A   Clear
12:53 PM 32.0 °F 26.4 °F 17.1 °F 54% 30.37 in 10.0 mi NE 5.8 mph - N/A   Clear
1:53 PM 32.0 °F 28.7 °F 19.0 °F 59% 30.35 in 10.0 mi ESE 3.5 mph - N/A   Clear
2:53 PM 33.1 °F 27.7 °F 19.0 °F 56% 30.33 in 10.0 mi ENE 5.8 mph - N/A   Clear
3:53 PM 34.0 °F - 19.0 °F 54% 30.31 in 10.0 mi Calm Calm - N/A   Clear
4:53 PM 34.0 °F - 18.0 °F 52% 30.31 in 10.0 mi Calm Calm - N/A   Clear
5:53 PM 30.0 °F - 19.9 °F 66% 30.31 in 10.0 mi Calm Calm - N/A   Clear
6:53 PM 28.9 °F - 23.0 °F 78% 30.32 in 10.0 mi Calm Calm - N/A   Clear
7:53 PM 30.0 °F - 21.9 °F 72% 30.31 in 10.0 mi Calm Calm - N/A   Overcast
8:53 PM 30.0 °F - 21.9 °F 72% 30.30 in 10.0 mi Calm Calm - N/A   Overcast
9:53 PM 28.9 °F - 23.0 °F 78% 30.29 in 10.0 mi Calm Calm - N/A   Overcast
10:53 PM 30.0 °F - 21.0 °F 69% 30.28 in 10.0 mi Calm Calm - N/A   Overcast
11:53 PM 30.0 °F - 21.9 °F 72% 30.26 in 10.0 mi Calm Calm - N/A   Overcast